Date String (YYYY-MM-DD hh:mm:ss) UTC,Instrument flags,Ambient pressure (hPa),Sample flow (lpm),Bypass flow (lpm),Sample temperature (°C),Ambient temperature (°C),ASC tube jacket temperature (°C),LED temperature (°C),Box temperature (°C),Sample RH (%),Span deviation,Mass concentration (μg/m³),Mass concentration (μg/m³),Mass concentration (μg/m³)
DateTimeUTC,F1_M11,P_M11,Q1_M11,Q2_M11,T1_M11,T2_M11,T3_M11,T4_M11,T5_M11,U1_M11,ZSPAN_M11,X0_M11,X2_M11,X1_M11
2023-05-25 05:00:00,,0830.4,5.00,0.00,29.9,28.2,00.0,38.3,31.4,25.5,0003.6,0015.71,0010.54,0010.00
2023-05-25 05:01:00,,0830.4,5.00,0.00,29.9,28.2,00.0,38.3,31.4,25.8,0003.7,0016.17,0010.56,0010.01
2023-05-25 05:02:00,,0830.4,5.01,0.00,29.9,28.3,00.0,38.3,31.4,25.4,0003.7,0016.78,0010.59,0010.03
2023-05-25 05:03:00,,0830.3,5.00,0.00,29.9,28.3,00.0,38.3,31.4,24.9,0004.0,0017.04,0010.60,0010.04
2023-05-25 05:04:00,,0830.3,5.00,0.00,29.9,28.3,00.0,38.3,31.4,25.1,0003.8,0017.49,0010.58,0010.05
2023-05-25 05:05:00,,0830.3,5.00,0.00,29.9,28.2,00.0,38.3,31.4,25.2,0003.6,0017.82,0010.57,0010.04
2023-05-25 05:06:00,,0830.3,4.99,0.00,29.9,28.2,00.0,38.3,31.4,25.1,0003.6,0017.84,0010.56,0010.03
2023-05-25 05:07:00,,0830.2,4.99,0.00,29.9,28.2,00.0,38.3,31.4,24.9,0003.6,0017.73,0010.51,0010.01
2023-05-25 05:08:00,,0830.2,4.99,0.00,29.9,28.2,00.0,38.3,31.4,24.8,0003.7,0017.69,0010.50,0010.01
2023-05-25 05:09:00,,0830.2,5.00,0.00,29.9,28.2,00.0,38.3,31.4,24.9,0003.7,0017.70,0010.49,0010.01
2023-05-25 05:10:00,,0830.2,5.00,0.00,29.9,28.2,00.0,38.3,31.4,24.8,0003.7,0017.70,0010.50,0010.02
2023-05-25 05:11:00,,0830.3,5.01,0.00,29.9,28.2,00.0,38.3,31.4,24.5,0003.8,0017.17,0010.49,0010.03
2023-05-25 05:12:00,,0830.2,5.01,0.00,29.9,28.2,00.0,38.3,31.4,24.6,0003.7,0016.80,0010.48,0010.04
2023-05-25 05:13:00,,0830.2,4.99,0.00,29.9,28.2,00.0,38.3,31.4,24.7,0003.6,0016.28,0010.46,0010.02
2023-05-25 05:14:00,,0830.1,4.99,0.00,29.9,28.2,00.0,38.3,31.4,24.6,0003.5,0015.98,0010.43,0010.00
2023-05-25 05:15:00,,0830.1,5.00,0.00,29.9,28.2,00.0,38.3,31.4,24.4,0003.5,0015.52,0010.42,0009.96
2023-05-25 05:16:00,,0830.1,5.01,0.00,29.9,28.2,00.0,38.3,31.4,24.5,0003.7,0015.17,0010.40,0009.94
2023-05-25 05:17:00,,0830.1,5.01,0.00,29.9,28.2,00.0,38.3,31.4,24.4,0003.7,0015.10,0010.36,0009.91
2023-05-25 05:18:00,,0830.1,5.01,0.00,29.9,28.2,00.0,38.3,31.4,24.4,0003.7,0015.13,0010.35,0009.89
2023-05-25 05:19:00,,0830.1,4.99,0.00,29.9,28.2,00.0,38.3,31.4,24.3,0003.6,0015.07,0010.32,0009.86
2023-05-25 05:20:00,,0830.2,4.99,0.00,29.9,28.2,00.0,38.3,31.4,24.2,0003.7,0015.13,0010.30,0009.85
2023-05-25 05:21:00,,0830.3,5.00,0.00,29.9,28.2,00.0,38.3,31.4,24.3,0003.7,0015.07,0010.25,0009.81
2023-05-25 05:22:00,,0830.3,4.99,0.00,29.9,28.2,00.0,38.3,31.4,23.9,0003.7,0015.02,0010.18,0009.74
2023-05-25 05:23:00,,0830.2,5.00,0.00,29.9,28.2,00.0,38.3,31.4,23.4,0003.7,0014.99,0010.11,0009.67
2023-05-25 05:24:00,,0830.2,5.01,0.00,29.9,28.2,00.0,38.3,31.4,23.1,0003.7,0014.84,0010.04,0009.60
2023-05-25 05:25:00,,0830.1,5.01,0.00,29.9,28.2,00.0,38.3,31.4,23.0,0003.7,0014.90,0010.01,0009.54
2023-05-25 05:26:00,,0830.1,4.99,0.00,29.9,28.2,00.0,38.3,31.4,23.0,0003.5,0014.76,0009.94,0009.51
2023-05-25 05:27:00,,0830.1,4.99,0.00,29.9,28.2,00.0,38.3,31.4,23.1,0003.4,0014.66,0009.86,0009.45
2023-05-25 05:28:00,,0830.1,4.99,0.00,29.9,28.2,00.0,38.3,31.4,23.1,0003.3,0014.54,0009.77,0009.37
2023-05-25 05:29:00,,0830.1,5.00,0.00,29.9,28.2,00.0,38.3,31.4,23.1,0003.5,0014.44,0009.71,0009.32
2023-05-25 05:30:00,,0830.1,5.00,0.00,29.9,28.2,00.0,38.3,31.4,23.1,0003.5,0014.41,0009.64,0009.26
2023-05-25 05:31:00,,0830.1,5.00,0.00,29.9,28.2,00.0,38.3,31.4,23.2,0003.5,0014.28,0009.60,0009.21
2023-05-25 05:32:00,,0830.1,5.00,0.00,29.9,28.2,00.0,38.3,31.4,23.3,0003.6,0014.20,0009.57,0009.18
2023-05-25 05:33:00,,0830.1,5.00,0.00,29.9,28.2,00.0,38.3,31.4,23.4,0003.6,0014.26,0009.58,0009.18
2023-05-25 05:34:00,,0830.1,4.99,0.00,29.9,28.2,00.0,38.3,31.4,23.4,0003.6,0014.21,0009.62,0009.18
2023-05-25 05:35:00,,0830.1,4.99,0.00,29.9,28.2,00.0,38.3,31.4,23.1,0003.5,0014.16,0009.62,0009.20
2023-05-25 05:36:00,,0830.1,5.01,0.00,29.9,28.2,00.0,38.3,31.4,22.9,0003.7,0014.03,0009.58,0009.18
2023-05-25 05:37:00,,0830.1,5.01,0.00,29.9,28.2,00.0,38.3,31.4,22.7,0003.8,0014.01,0009.56,0009.15
2023-05-25 05:38:00,,0830.1,5.01,0.00,29.9,28.2,00.0,38.3,31.4,22.6,0003.9,0013.87,0009.49,0009.10
2023-05-25 05:39:00,,0830.1,5.00,0.00,29.9,28.2,00.0,38.3,31.4,22.7,0003.9,0013.89,0009.49,0009.08
2023-05-25 05:40:00,,0830.1,5.00,0.00,29.9,28.2,00.0,38.3,31.4,22.7,0003.8,0013.87,0009.48,0009.06
2023-05-25 05:41:00,,0830.1,5.00,0.00,29.9,28.2,00.0,38.3,31.4,22.6,0003.6,0013.84,0009.47,0009.03
2023-05-25 05:42:00,,0830.1,5.00,0.00,29.9,28.2,00.0,38.3,31.4,22.7,0003.6,0013.78,0009.40,0008.97
2023-05-25 05:43:00,,0830.1,5.00,0.00,29.9,28.2,00.0,38.3,31.4,22.5,0003.5,0013.66,0009.31,0008.89
2023-05-25 05:44:00,,0830.1,4.99,0.00,29.9,28.2,00.0,38.3,31.4,22.4,0003.4,0013.51,0009.22,0008.81
2023-05-25 05:45:00,,0830.1,5.01,0.00,29.9,28.2,00.0,38.3,31.4,22.4,0003.4,0013.39,0009.14,0008.71
2023-05-25 05:46:00,,0830.1,4.99,0.00,29.9,28.2,00.0,38.3,31.4,22.6,0003.5,0013.30,0009.06,0008.64
2023-05-25 05:47:00,,0830.1,5.00,0.00,29.9,28.2,00.0,38.3,31.4,22.6,0003.4,0013.21,0008.98,0008.58
2023-05-25 05:48:00,,0830.0,5.01,0.00,29.9,28.2,00.0,38.3,31.4,22.5,0003.4,0013.16,0008.94,0008.52
2023-05-25 05:49:00,,0830.0,5.00,0.00,29.9,28.1,00.0,38.3,31.4,22.5,0003.4,0013.20,0008.92,0008.49
2023-05-25 05:50:00,,0830.0,5.01,0.00,29.9,28.1,00.0,38.3,31.4,22.6,0003.5,0013.24,0008.90,0008.44
2023-05-25 05:51:00,,0830.0,5.00,0.00,29.8,28.1,00.0,38.3,31.4,22.6,0003.7,0013.42,0008.81,0008.38
2023-05-25 05:52:00,,0830.0,4.98,0.00,29.8,28.1,00.0,38.2,31.4,22.6,0003.9,0013.38,0008.72,0008.32
2023-05-25 05:53:00,,0830.0,4.99,0.00,29.8,28.1,00.0,38.2,31.4,22.7,0003.8,0013.34,0008.69,0008.28
2023-05-25 05:54:00,,0830.0,5.01,0.00,29.8,28.1,00.0,38.2,31.4,22.8,0003.7,0013.53,0008.68,0008.27
2023-05-25 05:55:00,,0830.0,5.01,0.00,29.8,28.1,00.0,38.2,31.4,22.7,0003.8,0013.52,0008.66,0008.25
2023-05-25 05:56:00,,0830.0,5.00,0.00,29.8,28.1,00.0,38.2,31.4,22.7,0003.8,0013.46,0008.61,0008.22
2023-05-25 05:57:00,,0830.0,4.98,0.00,29.8,28.1,00.0,38.2,31.4,22.8,0003.8,0013.43,0008.59,0008.18
2023-05-25 05:58:00,,0830.0,5.00,0.00,29.8,28.1,00.0,38.2,31.4,22.9,0003.8,0013.43,0008.54,0008.15
2023-05-25 05:59:00,,0830.0,5.01,0.00,29.8,28.1,00.0,38.2,31.3,22.8,0003.5,0013.74,0008.51,0008.11
